owner,sensor,date,latitude,longitude,vertical_datum,sea_water_temperature,qcFlag
Chevron,ioos:station:wmo:42888:1,2021-04-03T02:21:00Z,26.9277,-90.5226,12.9,23.3,11111222
Chevron,ioos:station:wmo:42888:1,2021-04-03T02:31:00Z,26.9277,-90.5227,13.2,23.2,11111222
Chevron,ioos:station:wmo:42888:1,2021-04-03T02:41:00Z,26.9277,-90.5226,13.4,23.2,11111222
Chevron,ioos:station:wmo:42888:1,2021-04-03T02:51:00Z,26.9277,-90.5227,13.2,23.2,11111222
Chevron,ioos:station:wmo:42888:1,2021-04-03T03:01:00Z,26.9277,-90.5226,12.9,23.2,11111222
Chevron,ioos:station:wmo:42888:1,2021-04-03T03:11:00Z,26.9277,-90.5226,13.1,23.2,11111222
Chevron,ioos:station:wmo:42888:1,2021-04-03T03:21:00Z,26.9277,-90.5227,12.7,23.2,11111222
Chevron,ioos:station:wmo:42888:1,2021-04-03T03:31:00Z,26.9277,-90.5226,12.8,23.2,11111222
Chevron,ioos:station:wmo:42888:1,2021-04-03T03:41:00Z,26.9277,-90.5226,13.0,23.2,11111222
Chevron,ioos:station:wmo:42888:1,2021-04-03T03:51:00Z,26.9277,-90.5227,13.3,23.2,11111222
Chevron,ioos:station:wmo:42888:1,2021-04-03T04:01:00Z,26.9277,-90.5226,12.9,23.2,11111222
Chevron,ioos:station:wmo:42888:1,2021-04-03T04:11:00Z,26.9277,-90.5226,13.2,23.2,11111222
Chevron,ioos:station:wmo:42888:1,2021-04-03T04:21:00Z,26.9277,-90.5227,13.0,23.2,11111222
Chevron,ioos:station:wmo:42888:1,2021-04-03T04:31:00Z,26.9277,-90.5226,13.1,23.2,11111222
Chevron,ioos:station:wmo:42888:1,2021-04-03T04:41:00Z,26.9277,-90.5226,13.1,23.2,11111222
Chevron,ioos:station:wmo:42888:1,2021-04-03T04:51:00Z,26.9277,-90.5226,13.2,23.2,11111222
Chevron,ioos:station:wmo:42888:1,2021-04-03T05:01:00Z,26.9277,-90.5226,13.1,23.2,11111222
Chevron,ioos:station:wmo:42888:1,2021-04-03T05:11:00Z,26.9277,-90.5226,13.1,23.2,11111222
Chevron,ioos:station:wmo:42888:1,2021-04-03T05:21:00Z,26.9277,-90.5226,13.0,23.1,11111222
Chevron,ioos:station:wmo:42888:1,2021-04-03T05:31:00Z,26.9277,-90.5226,13.0,23.1,11111222
Chevron,ioos:station:wmo:42888:1,2021-04-03T05:41:00Z,26.9277,-90.5226,13.1,23.1,11111222
Chevron,ioos:station:wmo:42888:1,2021-04-03T05:51:00Z,26.9277,-90.5226,13.3,23.1,11111222
Chevron,ioos:station:wmo:42888:1,2021-04-03T06:01:00Z,26.9277,-90.5227,13.2,23.1,11111222
Chevron,ioos:station:wmo:42888:1,2021-04-03T06:11:00Z,26.9277,-90.5226,13.1,23.1,11111222
Chevron,ioos:station:wmo:42888:1,2021-04-03T06:21:00Z,26.9277,-90.5226,13.1,23.1,11111222
Chevron,ioos:station:wmo:42888:1,2021-04-03T06:31:00Z,26.9279,-90.5225,13.1,23.1,11111222
Chevron,ioos:station:wmo:42888:1,2021-04-03T06:41:00Z,26.9278,-90.5226,13.2,23.1,11111222
Chevron,ioos:station:wmo:42888:1,2021-04-03T06:51:00Z,26.9276,-90.5228,13.1,23.1,11111222
Chevron,ioos:station:wmo:42888:1,2021-04-03T07:01:00Z,26.9277,-90.5226,13.2,23.1,11111222
Chevron,ioos:station:wmo:42888:1,2021-04-03T07:11:00Z,26.9276,-90.5226,13.0,23.1,11111222
Chevron,ioos:station:wmo:42888:1,2021-04-03T07:21:00Z,26.9277,-90.5228,13.0,23.1,11111222
Chevron,ioos:station:wmo:42888:1,2021-04-03T07:31:00Z,26.9277,-90.5226,13.2,23.1,11111222
Chevron,ioos:station:wmo:42888:1,2021-04-03T07:41:00Z,26.9274,-90.5226,13.1,23.1,11111222
Chevron,ioos:station:wmo:42888:1,2021-04-03T07:51:00Z,26.9265,-90.5232,13.4,23.1,11111222
Chevron,ioos:station:wmo:42888:1,2021-04-03T08:01:00Z,26.9266,-90.5238,13.0,23.1,11111222
Chevron,ioos:station:wmo:42888:1,2021-04-03T08:11:00Z,26.9265,-90.5231,13.5,23.1,11111222
Chevron,ioos:station:wmo:42888:1,2021-04-03T08:21:00Z,26.9275,-90.5226,13.2,23.1,11111222
Chevron,ioos:station:wmo:42888:1,2021-04-03T08:31:00Z,26.9278,-90.5238,12.9,23.1,11111222
Chevron,ioos:station:wmo:42888:1,2021-04-03T08:41:00Z,26.9269,-90.5240,13.2,23.1,11111222
Chevron,ioos:station:wmo:42888:1,2021-04-03T08:51:00Z,26.9279,-90.5237,13.1,23.0,11111222
Chevron,ioos:station:wmo:42888:1,2021-04-03T09:01:00Z,26.9277,-90.5227,13.1,23.0,11111222
Chevron,ioos:station:wmo:42888:1,2021-04-03T09:11:00Z,26.9277,-90.5227,13.2,23.0,11111222
Chevron,ioos:station:wmo:42888:1,2021-04-03T09:21:00Z,26.9276,-90.5226,13.2,23.0,11111222
Chevron,ioos:station:wmo:42888:1,2021-04-03T09:31:00Z,26.9277,-90.5226,13.1,23.0,11111222
Chevron,ioos:station:wmo:42888:1,2021-04-03T09:41:00Z,26.9277,-90.5227,13.2,23.0,11111222
Chevron,ioos:station:wmo:42888:1,2021-04-03T09:51:00Z,26.9277,-90.5227,13.0,23.0,11111222
Chevron,ioos:station:wmo:42888:1,2021-04-03T10:01:00Z,26.9276,-90.5226,13.1,23.0,11111222
Chevron,ioos:station:wmo:42888:1,2021-04-03T10:11:00Z,26.9276,-90.5225,13.3,23.0,11111222
Chevron,ioos:station:wmo:42888:1,2021-04-03T10:21:00Z,26.9276,-90.5226,13.1,23.0,11111222
Chevron,ioos:station:wmo:42888:1,2021-04-03T10:31:00Z,26.9276,-90.5226,13.1,23.0,11111222
Chevron,ioos:station:wmo:42888:1,2021-04-03T10:41:00Z,26.9276,-90.5226,13.4,23.0,11111222
Chevron,ioos:station:wmo:42888:1,2021-04-03T10:51:00Z,26.9275,-90.5226,13.1,23.0,11111222
Chevron,ioos:station:wmo:42888:1,2021-04-03T11:01:00Z,26.9276,-90.5226,13.2,23.0,11111222
Chevron,ioos:station:wmo:42888:1,2021-04-03T11:11:00Z,26.9276,-90.5226,13.2,23.0,11111222
Chevron,ioos:station:wmo:42888:1,2021-04-03T11:21:00Z,26.9275,-90.5226,13.2,23.0,11111222
Chevron,ioos:station:wmo:42888:1,2021-04-03T11:31:00Z,26.9275,-90.5227,13.2,23.0,11111222
Chevron,ioos:station:wmo:42888:1,2021-04-03T11:41:00Z,26.9275,-90.5226,13.1,23.0,11111222
Chevron,ioos:station:wmo:42888:1,2021-04-03T11:51:00Z,26.9276,-90.5226,12.9,23.0,11111222
Chevron,ioos:station:wmo:42888:1,2021-04-03T12:01:00Z,26.9276,-90.5226,13.2,23.0,11111222
Chevron,ioos:station:wmo:42888:1,2021-04-03T12:11:00Z,26.9276,-90.5226,13.3,23.0,11111222
Chevron,ioos:station:wmo:42888:1,2021-04-03T12:21:00Z,26.9276,-90.5226,13.1,23.0,11111222
Chevron,ioos:station:wmo:42888:1,2021-04-03T12:31:00Z,26.9276,-90.5226,13.1,23.0,11111222
Chevron,ioos:station:wmo:42888:1,2021-04-03T12:41:00Z,26.9276,-90.5226,13.1,23.0,11111222
Chevron,ioos:station:wmo:42888:1,2021-04-03T12:51:00Z,26.9276,-90.5226,13.2,23.0,11111222
Chevron,ioos:station:wmo:42888:1,2021-04-03T13:01:00Z,26.9276,-90.5226,13.1,23.0,11111222
Chevron,ioos:station:wmo:42888:1,2021-04-03T13:11:00Z,26.9276,-90.5226,13.1,23.0,11111222
Chevron,ioos:station:wmo:42888:1,2021-04-03T13:21:00Z,26.9275,-90.5226,12.9,23.0,11111222
Chevron,ioos:station:wmo:42888:1,2021-04-03T13:31:00Z,26.9276,-90.5226,13.1,23.0,11111222
Chevron,ioos:station:wmo:42888:1,2021-04-03T13:41:00Z,26.9276,-90.5226,13.0,23.0,11111222
Chevron,ioos:station:wmo:42888:1,2021-04-03T13:51:00Z,26.9276,-90.5226,12.8,23.0,11111222
Chevron,ioos:station:wmo:42888:1,2021-04-03T14:01:00Z,26.9276,-90.5226,13.2,23.0,11111222
Chevron,ioos:station:wmo:42888:1,2021-04-03T14:11:00Z,26.9276,-90.5226,12.7,23.1,11111222
Chevron,ioos:station:wmo:42888:1,2021-04-03T14:21:00Z,26.9275,-90.5226,13.0,23.1,11111222
Chevron,ioos:station:wmo:42888:1,2021-04-03T14:31:00Z,26.9276,-90.5226,13.1,23.1,11111222
Chevron,ioos:station:wmo:42888:1,2021-04-03T14:41:00Z,26.9276,-90.5226,12.9,23.1,11111222
Chevron,ioos:station:wmo:42888:1,2021-04-03T14:51:00Z,26.9276,-90.5226,12.9,23.1,11111222
Chevron,ioos:station:wmo:42888:1,2021-04-03T15:01:00Z,26.9276,-90.5226,13.1,23.1,11111222
Chevron,ioos:station:wmo:42888:1,2021-04-03T15:11:00Z,26.9275,-90.5226,12.9,23.1,11111222
Chevron,ioos:station:wmo:42888:1,2021-04-03T15:21:00Z,26.9276,-90.5226,13.0,23.1,11111222
Chevron,ioos:station:wmo:42888:1,2021-04-03T15:31:00Z,26.9276,-90.5226,12.9,23.1,11111222
Chevron,ioos:station:wmo:42888:1,2021-04-03T15:41:00Z,26.9276,-90.5226,13.1,23.1,11111222
Chevron,ioos:station:wmo:42888:1,2021-04-03T15:51:00Z,26.9276,-90.5226,13.0,23.1,11111222
Chevron,ioos:station:wmo:42888:1,2021-04-03T16:01:00Z,26.9276,-90.5225,13.1,23.1,11111222
Chevron,ioos:station:wmo:42888:1,2021-04-03T16:11:00Z,26.9276,-90.5226,13.1,23.1,11111222
Chevron,ioos:station:wmo:42888:1,2021-04-03T16:21:00Z,26.9276,-90.5226,13.1,23.1,11111222
Chevron,ioos:station:wmo:42888:1,2021-04-03T16:31:00Z,26.9276,-90.5227,12.9,23.1,11111222
Chevron,ioos:station:wmo:42888:1,2021-04-03T16:41:00Z,26.9276,-90.5226,13.0,23.1,11111222
Chevron,ioos:station:wmo:42888:1,2021-04-03T16:51:00Z,26.9276,-90.5226,12.9,23.1,11111222
Chevron,ioos:station:wmo:42888:1,2021-04-03T17:01:00Z,26.9276,-90.5226,13.0,23.1,11111222
Chevron,ioos:station:wmo:42888:1,2021-04-03T17:11:00Z,26.9276,-90.5226,13.4,23.1,11111222
Chevron,ioos:station:wmo:42888:1,2021-04-03T17:21:00Z,26.9276,-90.5226,13.1,23.1,11111222
Chevron,ioos:station:wmo:42888:1,2021-04-03T17:31:00Z,26.9276,-90.5226,13.2,23.1,11111222
Chevron,ioos:station:wmo:42888:1,2021-04-03T17:41:00Z,26.9276,-90.5226,13.0,23.1,11111222
Chevron,ioos:station:wmo:42888:1,2021-04-03T17:51:00Z,26.9275,-90.5226,13.2,23.1,11111222
Chevron,ioos:station:wmo:42888:1,2021-04-03T18:01:00Z,26.9275,-90.5226,13.3,23.1,11111222
Chevron,ioos:station:wmo:42888:1,2021-04-03T18:11:00Z,26.9276,-90.5226,13.0,23.1,11111222
Chevron,ioos:station:wmo:42888:1,2021-04-03T18:21:00Z,26.9276,-90.5226,13.0,23.1,11111222
Chevron,ioos:station:wmo:42888:1,2021-04-03T18:31:00Z,26.9275,-90.5226,13.1,23.1,11111222
Chevron,ioos:station:wmo:42888:1,2021-04-03T18:41:00Z,26.9276,-90.5226,13.4,23.1,11111222
Chevron,ioos:station:wmo:42888:1,2021-04-03T18:51:00Z,26.9276,-90.5226,13.3,23.1,11111222
Chevron,ioos:station:wmo:42888:1,2021-04-03T19:01:00Z,26.9276,-90.5226,13.0,23.1,11111222
Chevron,ioos:station:wmo:42888:1,2021-04-03T19:11:00Z,26.9276,-90.5226,13.2,23.1,11111222
Chevron,ioos:station:wmo:42888:1,2021-04-03T19:21:00Z,26.9276,-90.5226,13.1,23.1,11111222
Chevron,ioos:station:wmo:42888:1,2021-04-03T19:31:00Z,26.9276,-90.5226,13.2,23.1,11111222
Chevron,ioos:station:wmo:42888:1,2021-04-03T19:41:00Z,26.9276,-90.5226,13.1,23.1,11111222
Chevron,ioos:station:wmo:42888:1,2021-04-03T19:51:00Z,26.9276,-90.5226,13.0,23.1,11111222
Chevron,ioos:station:wmo:42888:1,2021-04-03T20:01:00Z,26.9276,-90.5226,13.2,23.1,11111222
Chevron,ioos:station:wmo:42888:1,2021-04-03T20:11:00Z,26.9276,-90.5226,13.2,23.1,11111222
Chevron,ioos:station:wmo:42888:1,2021-04-03T20:21:00Z,26.9276,-90.5226,13.3,23.1,11111222
Chevron,ioos:station:wmo:42888:1,2021-04-03T20:31:00Z,26.9276,-90.5226,13.3,23.1,11111222
Chevron,ioos:station:wmo:42888:1,2021-04-03T20:41:00Z,26.9276,-90.5226,13.4,23.1,11111222
Chevron,ioos:station:wmo:42888:1,2021-04-03T20:51:00Z,26.9276,-90.5226,13.1,23.1,11111222
Chevron,ioos:station:wmo:42888:1,2021-04-03T21:01:00Z,26.9276,-90.5226,13.1,23.1,11111222
Chevron,ioos:station:wmo:42888:1,2021-04-03T21:11:00Z,26.9276,-90.5226,13.3,23.1,11111222
Chevron,ioos:station:wmo:42888:1,2021-04-03T21:21:00Z,26.9276,-90.5226,13.1,23.1,11111222
Chevron,ioos:station:wmo:42888:1,2021-04-03T21:31:00Z,26.9276,-90.5226,13.1,23.1,11111222
Chevron,ioos:station:wmo:42888:1,2021-04-03T21:41:00Z,26.9276,-90.5226,13.1,23.1,11111222
Chevron,ioos:station:wmo:42888:1,2021-04-03T21:51:00Z,26.9276,-90.5226,13.3,23.1,11111222
Chevron,ioos:station:wmo:42888:1,2021-04-03T22:01:00Z,26.9276,-90.5226,13.5,23.2,11111222
Chevron,ioos:station:wmo:42888:1,2021-04-03T22:11:00Z,26.9276,-90.5226,13.6,23.1,11111222
Chevron,ioos:station:wmo:42888:1,2021-04-03T22:21:00Z,26.9276,-90.5225,13.3,23.1,11111222
Chevron,ioos:station:wmo:42888:1,2021-04-03T22:31:00Z,26.9276,-90.5225,13.3,23.1,11111222
Chevron,ioos:station:wmo:42888:1,2021-04-03T22:41:00Z,26.9276,-90.5226,13.1,23.1,11111222
Chevron,ioos:station:wmo:42888:1,2021-04-03T22:51:00Z,26.9275,-90.5226,13.2,23.1,11111222
Chevron,ioos:station:wmo:42888:1,2021-04-03T23:01:00Z,26.9276,-90.5226,13.2,23.1,11111222
Chevron,ioos:station:wmo:42888:1,2021-04-03T23:11:00Z,26.9275,-90.5226,13.2,23.1,11111222
Chevron,ioos:station:wmo:42888:1,2021-04-03T23:21:00Z,26.9276,-90.5226,13.4,23.1,11111222
Chevron,ioos:station:wmo:42888:1,2021-04-03T23:31:00Z,26.9276,-90.5226,13.3,23.1,11111222
Chevron,ioos:station:wmo:42888:1,2021-04-03T23:41:00Z,26.9275,-90.5226,13.2,23.1,11111222
Chevron,ioos:station:wmo:42888:1,2021-04-03T23:51:00Z,26.9276,-90.5226,13.3,23.1,11111222
Chevron,ioos:station:wmo:42888:1,2021-04-04T00:01:00Z,26.9275,-90.5226,13.5,23.1,11111222
Chevron,ioos:station:wmo:42888:1,2021-04-04T00:11:00Z,26.9276,-90.5226,13.3,23.1,11111222
Chevron,ioos:station:wmo:42888:1,2021-04-04T00:21:00Z,26.9276,-90.5226,13.4,23.1,11111222
Chevron,ioos:station:wmo:42888:1,2021-04-04T00:31:00Z,26.9275,-90.5225,13.3,23.1,11111222
Chevron,ioos:station:wmo:42888:1,2021-04-04T00:41:00Z,26.9276,-90.5225,13.2,23.0,11111222
Chevron,ioos:station:wmo:42888:1,2021-04-04T00:51:00Z,26.9276,-90.5226,13.3,23.0,11111222
Chevron,ioos:station:wmo:42888:1,2021-04-04T01:01:00Z,26.9276,-90.5226,13.3,23.1,11111222
Chevron,ioos:station:wmo:42888:1,2021-04-04T01:11:00Z,26.9276,-90.5226,13.6,23.0,11111222
Chevron,ioos:station:wmo:42888:1,2021-04-04T01:21:00Z,26.9276,-90.5226,13.3,23.0,11111222
Chevron,ioos:station:wmo:42888:1,2021-04-04T01:31:00Z,26.9276,-90.5226,13.6,23.1,11111222
Chevron,ioos:station:wmo:42888:1,2021-04-04T01:41:00Z,26.9276,-90.5226,13.2,23.1,11111222
Chevron,ioos:station:wmo:42888:1,2021-04-04T01:51:00Z,26.9275,-90.5226,13.3,23.1,11111222
Chevron,ioos:station:wmo:42888:1,2021-04-04T02:01:00Z,26.9276,-90.5226,13.4,23.0,11111222
Chevron,ioos:station:wmo:42888:1,2021-04-04T02:11:00Z,26.9276,-90.5226,13.3,23.1,11111222
Chevron,ioos:station:wmo:42888:1,2021-04-04T02:21:00Z,26.9276,-90.5226,13.5,23.0,11111222
Chevron,ioos:station:wmo:42888:1,2021-04-04T02:31:00Z,26.9276,-90.5226,13.3,23.0,11111222
Chevron,ioos:station:wmo:42888:1,2021-04-04T02:41:00Z,26.9275,-90.5226,13.5,23.0,11111222
Chevron,ioos:station:wmo:42888:1,2021-04-04T02:51:00Z,26.9276,-90.5226,13.8,23.0,11111222
Chevron,ioos:station:wmo:42888:1,2021-04-04T03:01:00Z,26.9276,-90.5226,13.2,23.0,11111222
Chevron,ioos:station:wmo:42888:1,2021-04-04T03:11:00Z,26.9275,-90.5226,13.4,23.0,11111222
Chevron,ioos:station:wmo:42888:1,2021-04-04T03:21:00Z,26.9275,-90.5226,13.6,23.0,11111222
Chevron,ioos:station:wmo:42888:1,2021-04-04T03:31:00Z,26.9276,-90.5226,13.5,23.0,11111222
Chevron,ioos:station:wmo:42888:1,2021-04-04T03:41:00Z,26.9276,-90.5226,13.4,23.0,11111222
Chevron,ioos:station:wmo:42888:1,2021-04-04T03:51:00Z,26.9276,-90.5226,13.4,23.0,11111222
Chevron,ioos:station:wmo:42888:1,2021-04-04T04:01:00Z,26.9276,-90.5226,13.5,22.9,11111222
Chevron,ioos:station:wmo:42888:1,2021-04-04T04:11:00Z,26.9276,-90.5226,13.4,22.9,11111222
Chevron,ioos:station:wmo:42888:1,2021-04-04T04:21:00Z,26.9276,-90.5226,13.6,22.9,11111222
Chevron,ioos:station:wmo:42888:1,2021-04-04T04:31:00Z,26.9276,-90.5226,13.3,22.9,11111222
Chevron,ioos:station:wmo:42888:1,2021-04-04T04:41:00Z,26.9276,-90.5226,13.5,23.0,11111222
Chevron,ioos:station:wmo:42888:1,2021-04-04T04:51:00Z,26.9276,-90.5226,13.5,23.0,11111222
Chevron,ioos:station:wmo:42888:1,2021-04-04T05:01:00Z,26.9276,-90.5225,13.4,23.0,11111222
Chevron,ioos:station:wmo:42888:1,2021-04-04T05:11:00Z,26.9276,-90.5226,13.4,23.0,11111222
Chevron,ioos:station:wmo:42888:1,2021-04-04T05:21:00Z,26.9276,-90.5226,13.4,23.0,11111222
Chevron,ioos:station:wmo:42888:1,2021-04-04T05:31:00Z,26.9276,-90.5226,13.2,23.0,11111222
Chevron,ioos:station:wmo:42888:1,2021-04-04T05:43:00Z,26.9276,-90.5226,13.3,23.0,11111222
Chevron,ioos:station:wmo:42888:1,2021-04-04T05:53:00Z,26.9275,-90.5226,13.4,22.9,11111222
Chevron,ioos:station:wmo:42888:1,2021-04-04T06:03:00Z,26.9276,-90.5226,13.5,22.9,11111222
Chevron,ioos:station:wmo:42888:1,2021-04-04T06:13:00Z,26.9274,-90.5225,13.4,22.9,11111222
Chevron,ioos:station:wmo:42888:1,2021-04-04T06:23:00Z,26.9273,-90.5225,13.6,22.9,11111222
Chevron,ioos:station:wmo:42888:1,2021-04-04T06:33:00Z,26.9273,-90.5225,13.3,23.0,11111222
Chevron,ioos:station:wmo:42888:1,2021-04-04T06:43:00Z,26.9273,-90.5225,13.6,23.0,11111222
Chevron,ioos:station:wmo:42888:1,2021-04-04T06:53:00Z,26.9273,-90.5225,13.4,23.0,11111222
Chevron,ioos:station:wmo:42888:1,2021-04-04T07:03:00Z,26.9273,-90.5225,13.5,23.0,11111222
Chevron,ioos:station:wmo:42888:1,2021-04-04T07:13:00Z,26.9273,-90.5225,13.4,23.0,11111222
Chevron,ioos:station:wmo:42888:1,2021-04-04T07:23:00Z,26.9273,-90.5225,13.6,23.0,11111222
Chevron,ioos:station:wmo:42888:1,2021-04-04T07:33:00Z,26.9274,-90.5225,13.2,23.0,11111222
Chevron,ioos:station:wmo:42888:1,2021-04-04T07:43:00Z,26.9273,-90.5225,13.7,22.9,11111222
Chevron,ioos:station:wmo:42888:1,2021-04-04T07:53:00Z,26.9273,-90.5224,13.7,22.9,11111222
Chevron,ioos:station:wmo:42888:1,2021-04-04T08:03:00Z,26.9273,-90.5225,13.6,22.9,11111222
Chevron,ioos:station:wmo:42888:1,2021-04-04T08:13:00Z,26.9273,-90.5225,13.7,22.9,11111222
Chevron,ioos:station:wmo:42888:1,2021-04-04T08:23:00Z,26.9274,-90.5226,13.6,22.9,11111222
Chevron,ioos:station:wmo:42888:1,2021-04-04T08:33:00Z,26.9273,-90.5226,13.6,22.9,11111222
Chevron,ioos:station:wmo:42888:1,2021-04-04T08:43:00Z,26.9274,-90.5225,13.7,22.9,11111222
Chevron,ioos:station:wmo:42888:1,2021-04-04T08:53:00Z,26.9273,-90.5225,13.7,22.9,11111222
Chevron,ioos:station:wmo:42888:1,2021-04-04T09:03:00Z,26.9273,-90.5224,13.4,22.9,11111222
Chevron,ioos:station:wmo:42888:1,2021-04-04T09:13:00Z,26.9273,-90.5225,13.7,22.9,11111222
Chevron,ioos:station:wmo:42888:1,2021-04-04T09:23:00Z,26.9273,-90.5224,13.3,23.0,11111222
Chevron,ioos:station:wmo:42888:1,2021-04-04T09:33:00Z,26.9273,-90.5225,13.4,23.0,11111222
Chevron,ioos:station:wmo:42888:1,2021-04-04T09:43:00Z,26.9273,-90.5225,13.1,23.0,11111222
Chevron,ioos:station:wmo:42888:1,2021-04-04T09:53:00Z,26.9273,-90.5225,13.3,23.0,11111222
Chevron,ioos:station:wmo:42888:1,2021-04-04T10:03:00Z,26.9273,-90.5225,13.4,23.0,11111222
Chevron,ioos:station:wmo:42888:1,2021-04-04T10:13:00Z,26.9273,-90.5225,13.3,23.0,11111222
Chevron,ioos:station:wmo:42888:1,2021-04-04T10:23:00Z,26.9273,-90.5225,13.4,22.9,11111222
Chevron,ioos:station:wmo:42888:1,2021-04-04T10:33:00Z,26.9274,-90.5225,13.2,23.0,11111222
Chevron,ioos:station:wmo:42888:1,2021-04-04T10:43:00Z,26.9273,-90.5225,13.4,23.0,11111222
Chevron,ioos:station:wmo:42888:1,2021-04-04T10:53:00Z,26.9273,-90.5225,13.4,23.0,11111222
Chevron,ioos:station:wmo:42888:1,2021-04-04T11:03:00Z,26.9273,-90.5225,13.3,23.0,11111222
Chevron,ioos:station:wmo:42888:1,2021-04-04T11:13:00Z,26.9274,-90.5225,13.0,23.0,11111222
Chevron,ioos:station:wmo:42888:1,2021-04-04T11:23:00Z,26.9273,-90.5225,13.2,23.0,11111222
Chevron,ioos:station:wmo:42888:1,2021-04-04T11:33:00Z,26.9273,-90.5225,12.9,23.0,11111222
Chevron,ioos:station:wmo:42888:1,2021-04-04T11:43:00Z,26.9273,-90.5225,13.1,23.0,11111222
Chevron,ioos:station:wmo:42888:1,2021-04-04T11:53:00Z,26.9273,-90.5225,13.0,23.0,11111222
Chevron,ioos:station:wmo:42888:1,2021-04-04T12:03:00Z,26.9273,-90.5225,13.1,23.0,11111222
Chevron,ioos:station:wmo:42888:1,2021-04-04T12:13:00Z,26.9273,-90.5225,13.4,23.0,11111222
Chevron,ioos:station:wmo:42888:1,2021-04-04T12:23:00Z,26.9273,-90.5225,13.0,23.0,11111222
Chevron,ioos:station:wmo:42888:1,2021-04-04T12:33:00Z,26.9273,-90.5225,13.2,23.0,11111222
Chevron,ioos:station:wmo:42888:1,2021-04-04T12:43:00Z,26.9273,-90.5225,13.2,23.0,11111222
Chevron,ioos:station:wmo:42888:1,2021-04-04T12:53:00Z,26.9273,-90.5225,13.1,23.0,11111222
Chevron,ioos:station:wmo:42888:1,2021-04-04T13:03:00Z,26.9273,-90.5225,13.3,23.0,11111222
Chevron,ioos:station:wmo:42888:1,2021-04-04T13:13:00Z,26.9274,-90.5225,13.4,23.0,11111222
Chevron,ioos:station:wmo:42888:1,2021-04-04T13:23:00Z,26.9273,-90.5225,13.2,23.0,11111222
Chevron,ioos:station:wmo:42888:1,2021-04-04T13:33:00Z,26.9273,-90.5225,13.3,23.0,11111222
Chevron,ioos:station:wmo:42888:1,2021-04-04T13:43:00Z,26.9273,-90.5225,13.3,23.0,11111222
Chevron,ioos:station:wmo:42888:1,2021-04-04T13:53:00Z,26.9273,-90.5225,13.3,23.0,11111222
Chevron,ioos:station:wmo:42888:1,2021-04-04T14:03:00Z,26.9273,-90.5225,13.2,23.0,11111222
Chevron,ioos:station:wmo:42888:1,2021-04-04T14:13:00Z,26.9273,-90.5225,13.4,23.0,11111222
Chevron,ioos:station:wmo:42888:1,2021-04-04T14:23:00Z,26.9273,-90.5225,13.2,23.0,11111222
Chevron,ioos:station:wmo:42888:1,2021-04-04T14:33:00Z,26.9273,-90.5225,13.2,23.0,11111222
Chevron,ioos:station:wmo:42888:1,2021-04-04T14:43:00Z,26.9273,-90.5225,13.1,23.1,11111222
Chevron,ioos:station:wmo:42888:1,2021-04-04T14:53:00Z,26.9273,-90.5225,13.2,23.0,11111222
Chevron,ioos:station:wmo:42888:1,2021-04-04T15:03:00Z,26.9273,-90.5225,13.1,23.0,11111222
Chevron,ioos:station:wmo:42888:1,2021-04-04T15:13:00Z,26.9273,-90.5225,13.4,23.0,11111222
Chevron,ioos:station:wmo:42888:1,2021-04-04T15:23:00Z,26.9273,-90.5225,13.1,23.0,11111222
Chevron,ioos:station:wmo:42888:1,2021-04-04T15:33:00Z,26.9273,-90.5224,13.0,23.0,11111222
Chevron,ioos:station:wmo:42888:1,2021-04-04T15:43:00Z,26.9274,-90.5225,13.3,23.0,11111222
Chevron,ioos:station:wmo:42888:1,2021-04-04T15:53:00Z,26.9273,-90.5225,13.1,23.0,11111222
Chevron,ioos:station:wmo:42888:1,2021-04-04T16:03:00Z,26.9273,-90.5225,13.1,23.1,11111222
Chevron,ioos:station:wmo:42888:1,2021-04-04T16:13:00Z,26.9273,-90.5225,13.3,23.1,11111222
Chevron,ioos:station:wmo:42888:1,2021-04-04T16:23:00Z,26.9273,-90.5225,13.2,23.0,11111222
Chevron,ioos:station:wmo:42888:1,2021-04-04T16:33:00Z,26.9273,-90.5225,13.7,23.0,11111222
Chevron,ioos:station:wmo:42888:1,2021-04-04T16:43:00Z,26.9273,-90.5225,13.5,23.0,11111222
Chevron,ioos:station:wmo:42888:1,2021-04-04T16:53:00Z,26.9273,-90.5225,13.3,23.0,11111222
Chevron,ioos:station:wmo:42888:1,2021-04-04T17:03:00Z,26.9273,-90.5224,13.0,23.0,11111222
Chevron,ioos:station:wmo:42888:1,2021-04-04T17:13:00Z,26.9274,-90.5225,13.5,23.0,11111222
Chevron,ioos:station:wmo:42888:1,2021-04-04T17:23:00Z,26.9273,-90.5225,13.3,23.0,11111222
Chevron,ioos:station:wmo:42888:1,2021-04-04T17:33:00Z,26.9273,-90.5225,12.9,23.0,11111222
Chevron,ioos:station:wmo:42888:1,2021-04-04T17:43:00Z,26.9273,-90.5225,13.2,23.0,11111222
Chevron,ioos:station:wmo:42888:1,2021-04-04T17:53:00Z,26.9273,-90.5225,13.2,23.0,11111222
Chevron,ioos:station:wmo:42888:1,2021-04-04T18:03:00Z,26.9273,-90.5225,13.2,23.0,11111222
Chevron,ioos:station:wmo:42888:1,2021-04-04T18:13:00Z,26.9273,-90.5225,13.0,23.0,11111222
Chevron,ioos:station:wmo:42888:1,2021-04-04T18:23:00Z,26.9273,-90.5225,13.2,23.0,11111222
Chevron,ioos:station:wmo:42888:1,2021-04-04T18:33:00Z,26.9273,-90.5225,13.3,23.0,11111222
Chevron,ioos:station:wmo:42888:1,2021-04-04T18:43:00Z,26.9273,-90.5225,13.1,23.0,11111222
Chevron,ioos:station:wmo:42888:1,2021-04-04T18:53:00Z,26.9273,-90.5225,13.3,23.0,11111222
Chevron,ioos:station:wmo:42888:1,2021-04-04T19:03:00Z,26.9273,-90.5225,13.1,23.0,11111222
Chevron,ioos:station:wmo:42888:1,2021-04-04T19:13:00Z,26.9273,-90.5225,13.2,23.0,11111222
Chevron,ioos:station:wmo:42888:1,2021-04-04T19:23:00Z,26.9273,-90.5225,13.0,23.0,11111222
Chevron,ioos:station:wmo:42888:1,2021-04-04T19:33:00Z,26.9273,-90.5225,13.2,23.0,11111222
Chevron,ioos:station:wmo:42888:1,2021-04-04T19:43:00Z,26.9273,-90.5225,13.0,23.0,11111222
Chevron,ioos:station:wmo:42888:1,2021-04-04T19:53:00Z,26.9273,-90.5225,13.2,23.1,11111222
Chevron,ioos:station:wmo:42888:1,2021-04-04T20:03:00Z,26.9273,-90.5225,13.4,23.0,11111222
Chevron,ioos:station:wmo:42888:1,2021-04-04T20:13:00Z,26.9274,-90.5225,13.2,23.0,11111222
Chevron,ioos:station:wmo:42888:1,2021-04-04T20:23:00Z,26.9273,-90.5225,13.2,23.0,11111222
Chevron,ioos:station:wmo:42888:1,2021-04-04T20:33:00Z,26.9273,-90.5225,13.3,23.0,11111222
Chevron,ioos:station:wmo:42888:1,2021-04-04T20:43:00Z,26.9273,-90.5225,13.0,23.0,11111222
Chevron,ioos:station:wmo:42888:1,2021-04-04T20:53:00Z,26.9273,-90.5225,13.4,23.1,11111222
Chevron,ioos:station:wmo:42888:1,2021-04-04T21:03:00Z,26.9273,-90.5225,13.1,23.1,11111222
Chevron,ioos:station:wmo:42888:1,2021-04-04T21:13:00Z,26.9273,-90.5225,13.3,23.1,11111222
Chevron,ioos:station:wmo:42888:1,2021-04-04T21:23:00Z,26.9273,-90.5225,13.2,23.0,11111222
Chevron,ioos:station:wmo:42888:1,2021-04-04T21:33:00Z,26.9273,-90.5225,13.5,23.0,11111222
Chevron,ioos:station:wmo:42888:1,2021-04-04T21:43:00Z,26.9273,-90.5225,13.2,23.1,11111222
Chevron,ioos:station:wmo:42888:1,2021-04-04T21:53:00Z,26.9273,-90.5225,13.3,23.1,11111222